Weather History for Ciudad Victoria, Mexico

Change the Weather History Date:

Thursday, December 13, 2012

  Actual Average Record
Temperature  
Mean Temperature 64 °F -  
Max Temperature 75 °F 74 °F 84 °F (2001)
Min Temperature 54 °F 52 °F 33 °F (2010)
Degree Days  
Heating Degree Days 2    
Growing Degree Days 14 (Base 50)    
Moisture  
Dew Point 57 °F    
Average Humidity 69    
Maximum Humidity 100    
Minimum Humidity 53    
Precipitation  
Precipitation 0.00 in - - ()
Sea Level Pressure  
Sea Level Pressure 30.17 in    
Wind  
Wind Speed 5 mph ()    
Max Wind Speed 14 mph    
Max Gust Speed -    
Visibility 6.7 miles    
Events      
Averages and records for this station are not official NWS values.
T = Trace of Precipitation, MM = Missing Value Source: Averaged Metar Reports

Daily Weather History Graph

Daily Weather History Graph

Search for Another Location

Airport:

Trip Planner

Search our weather history database for the weather conditions in past years. The results will help you decide how hot, cold, wet, or windy it might be!

Date:

Astronomy

Dec. 13, 2012 Rise Set
Actual Time 7:09 AM CST 5:51 PM CST
Civil Twilight 6:44 AM CST 6:15 PM CST
Nautical Twilight 6:16 AM CST 6:43 PM CST
Astronomical Twilight 5:48 AM CST 7:11 PM CST
Moon 7:21 AM CST (12/13) 6:32 PM CST (12/13)
Length of Visible Light 11h 30m
Length of Day
10h 41m
New Moon, 0% of the Moon is Illuminated
Dec 13
New Moon
Dec 19
First Quarter
Dec 28
Full
Jan 4
Last Quarter
Jan 11
New

Hourly Weather History & Observations

Time (CST) Temp. Dew Point Humidity Pressure Visibility Wind Dir Wind Speed Gust Speed Precip Events Conditions
2:50 AM 60 °F 47 °F 53% 30.24 in 4 mi Calm Calm - -   Scattered Clouds
5:50 AM 58 °F 51 °F 71% 30.24 in 4 mi Calm Calm - -   Partly Cloudy
5:59 AM 60.8 °F 44.6 °F 55% 30.19 in 6.0 mi South 8.1 mph - N/A   Scattered Clouds
6:46 AM 60.8 °F 46.4 °F 59% 30.19 in 6.0 mi ESE 9.2 mph - N/A   Mostly Cloudy
7:43 AM 60.8 °F 48.2 °F 63% 30.20 in 6.0 mi SE 5.8 mph - N/A   Mostly Cloudy
8:42 AM 64.4 °F 50.0 °F 59% 30.23 in 6.0 mi ESE 6.9 mph - N/A   Overcast
8:50 AM 61 °F 53 °F 69% 30.26 in 6 mi Calm Calm - -   Mostly Cloudy
9:43 AM 66.2 °F 51.8 °F 60% 30.22 in 6.0 mi East 6.9 mph - N/A   Overcast
10:40 AM 68.0 °F 55.4 °F 64% 30.23 in 8.0 mi ESE 6.9 mph - N/A   Overcast
11:44 AM 71.6 °F 59.0 °F 64% 30.17 in 10.0 mi South 6.9 mph - N/A   Overcast
11:50 AM 72 °F 63 °F 65% 30.23 in 6 mi NNW 2.2 mph - -   Mostly Cloudy
12:41 PM 71.6 °F 59.0 °F 64% 30.17 in 10.0 mi SE 13.8 mph - N/A   Overcast
1:46 PM 69.8 °F 60.8 °F 73% 30.14 in 8.0 mi SE 12.7 mph - N/A   Overcast
2:47 PM 71.6 °F 60.8 °F 69% 30.12 in 10.0 mi SE 12.7 mph - N/A   Overcast
2:50 PM 73 °F 65 °F 70% 30.14 in 6 mi SE 8.9 mph - -   Mostly Cloudy
3:49 PM 69.8 °F 60.8 °F 73% 30.10 in 10.0 mi SSE 13.8 mph - N/A   Overcast
5:45 PM 69.8 °F 60.8 °F 73% 30.09 in 7.0 mi ESE 11.5 mph - N/A   Mostly Cloudy
6:44 PM 69.8 °F 60.8 °F 73% 30.08 in 7.0 mi SSE 6.9 mph - N/A   Mostly Cloudy
7:44 PM 68.0 °F 60.8 °F 78% 30.12 in 7.0 mi SSE 6.9 mph - N/A   Mostly Cloudy
8:45 PM 68 °F 66 °F 90%  in 4 mi Calm Calm - -  
8:46 PM 68.0 °F 60.8 °F 78% 30.13 in 6.0 mi South 9.2 mph - N/A   Mostly Cloudy
11:50 PM 63 °F 63 °F 100% 30.14 in 4 mi Calm Calm - -   Scattered Clouds